TimePST,TemperatureF,Dew PointF,Humidity,Sea Level PressureIn,VisibilityMPH,Wind Direction,Wind SpeedMPH,Gust SpeedMPH,PrecipitationIn,Events,Conditions,WindDirDegrees,DateUTC
12:56 AM,27.0,25.0,92,30.15,10.0,SSE,3.5,-,N/A,,Clear,150,2012-12-07 08:56:00
1:56 AM,26.1,24.1,92,30.17,10.0,Calm,Calm,-,N/A,,Clear,0,2012-12-07 09:56:00
2:56 AM,26.1,25.0,96,30.17,10.0,SSE,4.6,-,N/A,,Clear,160,2012-12-07 10:56:00
3:56 AM,24.1,21.9,91,30.17,10.0,SSE,4.6,-,N/A,,Clear,160,2012-12-07 11:56:00
4:56 AM,24.1,21.9,91,30.18,10.0,SSE,5.8,-,N/A,,Clear,150,2012-12-07 12:56:00
5:56 AM,23.0,21.9,96,30.21,10.0,Calm,Calm,-,N/A,,Clear,0,2012-12-07 13:56:00
6:56 AM,21.9,19.9,92,30.22,10.0,SSE,3.5,-,N/A,,Clear,150,2012-12-07 14:56:00
7:56 AM,24.1,21.9,91,30.21,10.0,Calm,Calm,-,N/A,,Clear,0,2012-12-07 15:56:00
8:56 AM,34.0,28.9,82,30.20,10.0,Calm,Calm,-,N/A,,Clear,0,2012-12-07 16:56:00
9:56 AM,37.0,30.9,79,30.19,10.0,Calm,Calm,-,N/A,,Clear,0,2012-12-07 17:56:00
10:56 AM,42.1,33.1,70,30.16,10.0,Calm,Calm,-,N/A,,Clear,0,2012-12-07 18:56:00
11:56 AM,46.0,30.0,54,30.12,10.0,South,9.2,-,N/A,,Clear,170,2012-12-07 19:56:00
12:56 PM,48.0,26.1,42,30.09,10.0,Variable,3.5,-,N/A,,Clear,0,2012-12-07 20:56:00
1:56 PM,48.0,21.0,34,30.08,10.0,West,11.5,-,N/A,,Clear,260,2012-12-07 21:56:00
2:56 PM,48.0,21.9,36,30.07,10.0,SW,10.4,-,N/A,,Clear,220,2012-12-07 22:56:00
3:56 PM,44.1,27.0,51,30.07,10.0,SSE,4.6,-,N/A,,Clear,150,2012-12-07 23:56:00
4:56 PM,42.1,26.1,53,30.08,10.0,SSW,4.6,-,N/A,,Partly Cloudy,210,2012-12-08 00:56:00
5:56 PM,41.0,28.9,62,30.08,10.0,SSE,6.9,-,N/A,,Clear,160,2012-12-08 01:56:00
6:56 PM,41.0,26.1,55,30.07,10.0,South,9.2,-,N/A,,Overcast,180,2012-12-08 02:56:00
7:56 PM,39.0,26.1,60,30.08,10.0,WSW,5.8,-,N/A,,Mostly Cloudy,250,2012-12-08 03:56:00
8:56 PM,35.1,25.0,67,30.07,10.0,Calm,Calm,-,N/A,,Clear,0,2012-12-08 04:56:00
9:56 PM,30.0,25.0,82,30.08,10.0,Calm,Calm,-,N/A,,Partly Cloudy,0,2012-12-08 05:56:00
10:56 PM,28.9,24.1,82,30.07,10.0,SE,6.9,-,N/A,,Clear,140,2012-12-08 06:56:00
11:56 PM,28.0,23.0,81,30.07,10.0,NE,4.6,-,N/A,,Clear,40,2012-12-08 07:56:00